| time (UTC) | temp F | wind direction | speed knots | gust knots | rain 1hr in | rain 24hr in | rain mn in | humidity % | barometer mb |
| 20260902103008 | 56 | 234 | 0.0 | 0.0 | 0.00 | 0.00 | 0.00 | 22 | 1010.1 |
| 20260902101508 | 56 | 234 | 0.0 | 0.0 | 0.00 | 0.00 | 0.00 | 24 | 1010.1 |
| 20260902100005 | 55 | 234 | 0.0 | 0.0 | 0.00 | 0.00 | 0.00 | 24 | 1010.2 |
| 20260902094503 | 55 | 234 | 0.0 | 0.0 | 0.00 | 0.00 | 0.00 | 26 | 1010.3 |
| 20260902093000 | 55 | 234 | 0.0 | 0.0 | 0.00 | 0.00 | 0.00 | 29 | 1010.4 |
| 20260902091612 | 56 | 234 | 0.0 | 0.0 | 0.00 | 0.00 | 0.00 | 33 | 1010.6 |
| 20260902090056 | 56 | 234 | 0.0 | 0.9 | 0.00 | 0.00 | 0.00 | 35 | 1010.6 |
| 20260902084554 | 56 | 180 | 0.0 | 1.7 | 0.00 | 0.00 | 0.00 | 38 | 1010.9 |
| 20260902083055 | 56 | 180 | 0.0 | 0.0 | 0.00 | 0.00 | 0.00 | 42 | 1010.9 |
| 20260902081550 | 57 | 180 | 0.0 | 0.9 | 0.00 | 0.00 | 0.00 | 46 | 1011.0 |
| 20260902080050 | 57 | 180 | 0.0 | 2.6 | 0.00 | 0.00 | 0.00 | 48 | 1011.1 |
| 20260902074546 | 58 | 136 | 0.0 | 4.3 | 0.00 | 0.00 | 0.00 | 48 | 1011.0 |
| 20260902073048 | 58 | 215 | 0.0 | 2.6 | 0.00 | 0.00 | 0.00 | 49 | 1011.0 |
| 20260902071548 | 58 | 205 | 0.0 | 4.3 | 0.00 | 0.00 | 0.00 | 50 | 1011.2 |
| 20260902070047 | 58 | 286 | 0.0 | 4.3 | 0.00 | 0.00 | 0.00 | 47 | 1011.3 |
| 20260902064541 | 58 | 203 | 0.0 | 3.5 | 0.00 | 0.00 | 0.00 | 45 | 1011.6 |
| 20260902063034 | 59 | 203 | 0.0 | 4.3 | 0.00 | 0.00 | 0.00 | 45 | 1011.7 |
| 20260902061527 | 59 | 124 | 0.0 | 4.3 | 0.00 | 0.00 | 0.00 | 45 | 1011.7 |
| 20260902060023 | 59 | 213 | 0.9 | 5.2 | 0.00 | 0.00 | 0.00 | 45 | 1011.9 |
| 20260902054517 | 60 | 155 | 0.0 | 4.3 | 0.00 | 0.00 | 0.00 | 46 | 1012.0 |
| 20260902053015 | 60 | 192 | 0.9 | 4.3 | 0.00 | 0.00 | 0.00 | 46 | 1012.0 |
| 20260902051511 | 60 | 252 | 0.0 | 3.5 | 0.00 | 0.00 | 0.00 | 46 | 1012.1 |
| 20260902050008 | 60 | 210 | 0.0 | 0.9 | 0.00 | 0.00 | 0.00 | 47 | 1012.0 |
| 20260902044600 | 60 | 209 | 0.0 | 2.6 | 0.00 | 0.00 | 0.00 | 47 | 1012.1 |
| 20260902043100 | 60 | 179 | 0.0 | 2.6 | 0.00 | 0.00 | 0.00 | 48 | 1012.0 |
| 20260902041558 | 60 | 178 | 0.0 | 1.7 | 0.00 | 0.00 | 0.00 | 49 | 1011.9 |
| 20260902040050 | 60 | 178 | 0.0 | 0.0 | 0.00 | 0.00 | 0.00 | 49 | 1012.0 |
| 20260902034543 | 60 | 178 | 0.9 | 2.6 | 0.00 | 0.00 | 0.00 | 50 | 1011.9 |
| 20260902033039 | 60 | 178 | 0.0 | 3.5 | 0.00 | 0.00 | 0.00 | 51 | 1011.9 |
| 20260902031534 | 60 | 178 | 0.0 | 1.7 | 0.00 | 0.00 | 0.00 | 52 | 1011.9 |
| 20260902030030 | 60 | 257 | 0.0 | 1.7 | 0.00 | 0.00 | 0.00 | 54 | 1011.8 |
| 20260902024525 | 61 | 275 | 0.0 | 2.6 | 0.00 | 0.00 | 0.00 | 55 | 1011.7 |
| 20260902023020 | 61 | 291 | 0.0 | 3.5 | 0.00 | 0.00 | 0.00 | 55 | 1011.7 |
| 20260902021516 | 61 | 221 | 0.0 | 5.2 | 0.00 | 0.00 | 0.00 | 55 | 1011.7 |
| 20260902020019 | 61 | 216 | 1.7 | 4.3 | 0.00 | 0.00 | 0.00 | 55 | 1011.8 |
| 20260902014509 | 61 | 194 | 1.7 | 5.2 | 0.00 | 0.00 | 0.00 | 54 | 1011.6 |
| 20260902013008 | 60 | 184 | 0.9 | 2.6 | 0.00 | 0.00 | 0.00 | 52 | 1011.6 |
| 20260902011603 | 60 | 292 | 0.0 | 5.2 | 0.00 | 0.00 | 0.00 | 53 | 1011.6 |
| 20260902010054 | 61 | 248 | 0.9 | 9.6 | 0.00 | 0.00 | 0.00 | 56 | 1011.6 |
| 20260902004550 | 62 | 191 | 1.7 | 6.1 | 0.00 | 0.00 | 0.00 | 60 | 1011.6 |
| 20260902003046 | 63 | 288 | 0.9 | 6.1 | 0.00 | 0.00 | 0.00 | 61 | 1011.3 |
| 20260902001541 | 64 | 266 | 0.9 | 11.3 | 0.00 | 0.00 | 0.00 | 61 | 1011.2 |
| 20260902000138 | 65 | 284 | 0.9 | 3.5 | 0.00 | 0.00 | 0.00 | 59 | 1011.0 |
| 20260901234531 | 65 | 316 | 0.0 | 6.1 | 0.00 | 0.00 | 0.00 | 59 | 1010.9 |
| 20260901233027 | 65 | 284 | 1.7 | 7.0 | 0.00 | 0.00 | 0.00 | 58 | 1011.1 |
| 20260901231523 | 65 | 267 | 1.7 | 3.5 | 0.00 | 0.00 | 0.00 | 58 | 1011.1 |
| 20260901230029 | 65 | 194 | 0.9 | 4.3 | 0.00 | 0.00 | 0.00 | 59 | 1011.1 |
| 20260901224519 | 65 | 221 | 1.7 | 6.1 | 0.00 | 0.00 | 0.00 | 58 | 1011.2 |
| 20260901223010 | 65 | 181 | 0.9 | 4.3 | 0.00 | 0.00 | 0.00 | 59 | 1011.1 |
| 20260901221509 | 65 | 293 | 1.7 | 6.1 | 0.00 | 0.00 | 0.00 | 58 | 1011.2 |
| 20260901220101 | 65 | 293 | 1.7 | 5.2 | 0.00 | 0.00 | 0.00 | 58 | 1011.2 |
| 20260901214600 | 65 | 287 | 1.7 | 4.3 | 0.00 | 0.00 | 0.00 | 58 | 1011.1 |
| 20260901213053 | 65 | 239 | 0.9 | 5.2 | 0.00 | 0.00 | 0.00 | 58 | 1011.0 |
| 20260901211548 | 65 | 293 | 0.9 | 6.1 | 0.00 | 0.00 | 0.00 | 58 | 1011.1 |
| 20260901210056 | 65 | 290 | 0.9 | 6.1 | 0.00 | 0.00 | 0.00 | 58 | 1011.0 |
| 20260901204542 | 64 | 169 | 1.7 | 5.2 | 0.00 | 0.00 | 0.00 | 58 | 1011.0 |
| 20260901203045 | 65 | 298 | 1.7 | 5.2 | 0.00 | 0.00 | 0.00 | 57 | 1011.1 |
| 20260901201529 | 66 | 79 | 1.7 | 7.0 | 0.00 | 0.00 | 0.00 | 56 | 1011.2 |
| 20260901200027 | 65 | 200 | 1.7 | 6.1 | 0.00 | 0.00 | 0.00 | 56 | 1011.1 |
| 20260901194521 | 64 | 171 | 1.7 | 4.3 | 0.00 | 0.00 | 0.00 | 56 | 1011.3 |
| 20260901193016 | 63 | 190 | 1.7 | 7.8 | 0.00 | 0.00 | 0.00 | 55 | 1011.5 |
| 20260901191514 | 63 | 265 | 0.9 | 4.3 | 0.00 | 0.00 | 0.00 | 54 | 1011.6 |
| 20260901190009 | 63 | 281 | 0.9 | 2.6 | 0.00 | 0.00 | 0.00 | 53 | 1011.7 |
| 20260901184502 | 63 | 217 | 1.7 | 4.3 | 0.00 | 0.00 | 0.00 | 53 | 1011.8 |
| 20260901183059 | 62 | 239 | 1.7 | 7.8 | 0.00 | 0.00 | 0.00 | 48 | 1011.9 |
| 20260901181555 | 62 | 207 | 1.7 | 8.7 | 0.00 | 0.00 | 0.00 | 44 | 1012.0 |
| 20260901180050 | 61 | 15 | 0.0 | 3.5 | 0.00 | 0.00 | 0.00 | 37 | 1012.1 |
| 20260901174549 | 61 | 201 | 0.9 | 5.2 | 0.00 | 0.00 | 0.00 | 35 | 1012.0 |
| 20260901173042 | 60 | 303 | 0.9 | 3.5 | 0.00 | 0.00 | 0.00 | 10 | 1012.0 |
| 20260901171541 | 59 | 215 | 1.7 | 6.1 | 0.00 | 0.00 | 0.00 | 14 | 1011.9 |
| 20260901170032 | 59 | 215 | 1.7 | 5.2 | 0.00 | 0.00 | 0.00 | 17 | 1012.0 |
| 20260901164533 | 59 | 188 | 0.0 | 3.5 | 0.00 | 0.00 | 0.00 | 7 | 1011.9 |
| 20260901163026 | 58 | 235 | 0.0 | 2.6 | 0.00 | 0.00 | 0.00 | 100 | 1011.9 |
| 20260901161519 | 57 | 203 | 0.0 | 2.6 | 0.00 | 0.00 | 0.00 | 100 | 1012.1 |
| 20260901160015 | 57 | 201 | 0.0 | 1.7 | 0.00 | 0.00 | 0.00 | 100 | 1012.1 |
| 20260901154520 | 57 | 194 | 0.0 | 1.7 | 0.00 | 0.00 | 0.00 | 100 | 1012.1 |
| 20260901153006 | 56 | 198 | 0.0 | 2.6 | 0.00 | 0.00 | 0.00 | 100 | 1012.0 |
| 20260901151502 | 57 | 197 | 0.0 | 3.5 | 0.00 | 0.00 | 0.00 | 100 | 1012.1 |
| 20260901150101 | 57 | 207 | 0.9 | 3.5 | 0.00 | 0.00 | 0.00 | 6 | 1012.0 |
| 20260901144552 | 57 | 227 | 0.0 | 1.7 | 0.00 | 0.00 | 0.00 | 15 | 1011.9 |
| 20260901143059 | 57 | 244 | 0.0 | 2.6 | 0.00 | 0.00 | 0.00 | 23 | 1011.8 |
| 20260901141548 | 58 | 189 | 1.7 | 5.2 | 0.00 | 0.00 | 0.00 | 29 | 1011.7 |
| 20260901140039 | 58 | 187 | 0.0 | 3.5 | 0.00 | 0.00 | 0.00 | 30 | 1011.5 |
| 20260901134539 | 58 | 195 | 0.0 | 2.6 | 0.00 | 0.00 | 0.00 | 29 | 1011.5 |
| 20260901133041 | 57 | 204 | 0.0 | 1.7 | 0.00 | 0.00 | 0.00 | 29 | 1011.3 |
| 20260901131525 | 57 | 204 | 0.0 | 0.9 | 0.00 | 0.00 | 0.00 | 29 | 1011.3 |
| 20260901130020 | 57 | 204 | 0.0 | 0.9 | 0.00 | 0.00 | 0.00 | 27 | 1011.4 |
| 20260901124517 | 57 | 204 | 0.0 | 0.0 | 0.00 | 0.00 | 0.00 | 25 | 1011.3 |
| 20260901123012 | 57 | 204 | 0.0 | 0.9 | 0.00 | 0.00 | 0.00 | 24 | 1011.3 |
| 20260901121508 | 57 | 204 | 0.0 | 1.7 | 0.00 | 0.00 | 0.00 | 23 | 1011.4 |
| 20260901120003 | 57 | 204 | 0.0 | 1.7 | 0.00 | 0.00 | 0.00 | 23 | 1011.3 |
| 20260901114601 | 57 | 204 | 0.0 | 0.9 | 0.00 | 0.00 | 0.00 | 21 | 1011.3 |
| 20260901113059 | 56 | 204 | 0.0 | 1.7 | 0.00 | 0.00 | 0.00 | 20 | 1011.3 |
| 20260901111552 | 56 | 204 | 0.0 | 1.7 | 0.00 | 0.00 | 0.00 | 19 | 1011.1 |
| 20260901110050 | 56 | 205 | 0.0 | 0.9 | 0.00 | 0.00 | 0.00 | 17 | 1011.1 |
| 20260901104546 | 56 | 205 | 0.0 | 1.7 | 0.00 | 0.00 | 0.00 | 16 | 1011.0 |